• In Hungary
  • List of Countries
  • For 7 days
  • Water Temperature
  • Satellite Maps
  • Weather Map
  • News
  • Weather Widgets
  • user-avatar
    Login

    Hourly Weather Pune

    Today, 20 November, Monday

    Time Temperature Precipitation Wind Pressure Humidity
    00:00 +24°C° 0 mm 1 mps 712 mmHg 59%
    01:00 +24°C° 0 mm 1 mps 712 mmHg 60%
    02:00 +24°C° 0 mm 1 mps 711 mmHg 60%
    03:00 +24°C° 0 mm 1 mps 711 mmHg 58%
    04:00 +24°C° 0 mm 1 mps 712 mmHg 57%
    05:00 +25°C° 0 mm 1 mps 712 mmHg 56%
    06:00 +25°C° 0 mm 2 mps 712 mmHg 56%
    07:00 +26°C° 0 mm 2 mps 713 mmHg 56%
    08:00 +26°C° 0 mm 2 mps 713 mmHg 56%
    09:00 +27°C° 0 mm 2 mps 713 mmHg 53%
    10:00 +28°C° 0 mm 3 mps 713 mmHg 51%
    11:00 +29°C° 0 mm 3 mps 714 mmHg 54%
    12:00 +29°C° 0 mm 3 mps 713 mmHg 52%
    13:00 +30°C° 0 mm 2 mps 712 mmHg 51%
    14:00 +30°C° 0 mm 2 mps 712 mmHg 49%
    15:00 +30°C° 0 mm 2 mps 711 mmHg 50%
    16:00 +29°C° 0 mm 2 mps 711 mmHg 51%
    17:00 +28°C° 0 mm 1 mps 711 mmHg 58%
    18:00 +27°C° 0 mm 2 mps 711 mmHg 59%
    19:00 +27°C° 0 mm 2 mps 712 mmHg 61%
    20:00 +26°C° 0 mm 2 mps 712 mmHg 62%
    21:00 +26°C° 0 mm 2 mps 712 mmHg 62%
    22:00 +26°C° 0 mm 2 mps 712 mmHg 61%
    23:00 +25°C° 0 mm 2 mps 712 mmHg 61%

    Tomorrow, 21 November, Tuesday

    Time Temperature Precipitation Wind Pressure Humidity
    00:00 +25°C° 0 mm 2 mps 712 mmHg 62%
    01:00 +25°C° 0 mm 2 mps 711 mmHg 62%
    02:00 +24°C° 0 mm 2 mps 711 mmHg 63%
    03:00 +24°C° 0 mm 2 mps 711 mmHg 64%
    04:00 +24°C° 0 mm 2 mps 711 mmHg 65%
    05:00 +23°C° 0 mm 2 mps 711 mmHg 66%
    06:00 +24°C° 0 mm 2 mps 711 mmHg 64%
    07:00 +25°C° 0 mm 3 mps 712 mmHg 62%
    08:00 +26°C° 0 mm 3 mps 712 mmHg 60%
    09:00 +28°C° 0 mm 3 mps 713 mmHg 55%
    10:00 +30°C° 0 mm 3 mps 713 mmHg 51%
    11:00 +32°C° 0 mm 4 mps 713 mmHg 46%
    12:00 +31°C° 0 mm 3 mps 712 mmHg 46%
    13:00 +32°C° 0 mm 2 mps 711 mmHg 45%
    14:00 +32°C° 0 mm 2 mps 711 mmHg 45%
    15:00 +31°C° 0 mm 1 mps 711 mmHg 49%
    16:00 +30°C° 0 mm 1 mps 711 mmHg 53%
    17:00 +27°C° 0 mm 0 mps 710 mmHg 56%
    18:00 +29°C° 0 mm 1 mps 711 mmHg 57%
    19:00 +28°C° 0 mm 1 mps 711 mmHg 58%
    20:00 +27°C° 0 mm 2 mps 712 mmHg 59%
    21:00 +27°C° 0 mm 2 mps 712 mmHg 61%
    22:00 +26°C° 0 mm 2 mps 711 mmHg 63%
    23:00 +26°C° 0 mm 2 mps 711 mmHg 65%

    Day after tomorrow, 22 November, Wednesday

    Time Temperature Precipitation Wind Pressure Humidity
    00:00 +25°C° 0 mm 2 mps 711 mmHg 66%
    01:00 +25°C° 0 mm 2 mps 711 mmHg 67%
    02:00 +25°C° 0 mm 2 mps 710 mmHg 68%
    03:00 +25°C° 0 mm 2 mps 710 mmHg 68%
    04:00 +25°C° 0 mm 2 mps 710 mmHg 69%
    05:00 +24°C° 0 mm 2 mps 710 mmHg 69%
    06:00 +25°C° 0 mm 2 mps 711 mmHg 65%
    07:00 +26°C° 0 mm 3 mps 711 mmHg 62%
    08:00 +27°C° 0 mm 3 mps 712 mmHg 59%
    09:00 +29°C° 0 mm 3 mps 712 mmHg 55%
    10:00 +30°C° 0 mm 4 mps 712 mmHg 52%
    11:00 +33°C° 0 mm 4 mps 712 mmHg 49%
    12:00 +33°C° 0 mm 3 mps 712 mmHg 47%
    13:00 +33°C° 0 mm 3 mps 711 mmHg 46%
    14:00 +34°C° 0 mm 2 mps 710 mmHg 45%
    15:00 +32°C° 0 mm 2 mps 710 mmHg 48%
    16:00 +31°C° 0 mm 1 mps 710 mmHg 51%
    17:00 +30°C° 0 mm 1 mps 710 mmHg 55%
    18:00 +29°C° 0 mm 1 mps 710 mmHg 57%
    19:00 +27°C° 0 mm 0 mps 711 mmHg 60%
    20:00 +26°C° 0 mm 0 mps 711 mmHg 63%
    21:00 +27°C° 0 mm 1 mps 711 mmHg 63%
    22:00 +27°C° 0 mm 1 mps 711 mmHg 64%
    23:00 +27°C° 0 mm 1 mps 711 mmHg 65%

    23 November, Thursday

    Time Temperature Precipitation Wind Pressure Humidity
    00:00 +26°C° 0.1 mm 1 mps 711 mmHg 66%
    01:00 +26°C° 0.1 mm 1 mps 710 mmHg 66%
    02:00 +26°C° 0.1 mm 1 mps 710 mmHg 67%
    03:00 +26°C° 0 mm 1 mps 710 mmHg 68%
    04:00 +25°C° 0 mm 1 mps 710 mmHg 68%
    05:00 +25°C° 0 mm 1 mps 710 mmHg 69%
    06:00 +26°C° 0 mm 1 mps 711 mmHg 65%
    07:00 +27°C° 0 mm 2 mps 711 mmHg 62%
    08:00 +27°C° 0 mm 3 mps 712 mmHg 59%
    09:00 +29°C° 0 mm 3 mps 712 mmHg 55%
    10:00 +30°C° 0 mm 3 mps 712 mmHg 51%
    11:00 +33°C° 0 mm 3 mps 712 mmHg 48%
    12:00 +33°C° 0 mm 3 mps 712 mmHg 47%
    13:00 +32°C° 0 mm 2 mps 711 mmHg 46%
    14:00 +32°C° 0 mm 1 mps 710 mmHg 46%
    15:00 +32°C° 0 mm 1 mps 710 mmHg 49%
    16:00 +31°C° 0 mm 1 mps 710 mmHg 53%
    17:00 +30°C° 0 mm 1 mps 710 mmHg 56%
    18:00 +29°C° 0.1 mm 1 mps 711 mmHg 60%
    19:00 +28°C° 0.1 mm 1 mps 711 mmHg 63%
    20:00 +27°C° 0.1 mm 1 mps 712 mmHg 67%
    21:00 +27°C° 0.1 mm 1 mps 712 mmHg 68%
    22:00 +26°C° 0.1 mm 1 mps 712 mmHg 68%
    23:00 +26°C° 0.1 mm 2 mps 712 mmHg 69%

    24 November, Friday

    Time Temperature Precipitation Wind Pressure Humidity
    00:00 +26°C° 0 mm 1 mps 711 mmHg 70%
    01:00 +25°C° 0 mm 1 mps 711 mmHg 70%
    02:00 +25°C° 0 mm 1 mps 710 mmHg 71%
    03:00 +25°C° 0 mm 1 mps 710 mmHg 71%
    04:00 +25°C° 0 mm 1 mps 711 mmHg 71%
    05:00 +24°C° 0 mm 1 mps 711 mmHg 71%
    06:00 +25°C° 0 mm 1 mps 711 mmHg 67%
    07:00 +26°C° 0 mm 1 mps 712 mmHg 63%
    08:00 +27°C° 0 mm 2 mps 713 mmHg 59%
    09:00 +29°C° 0 mm 2 mps 713 mmHg 53%
    10:00 +30°C° 0 mm 2 mps 713 mmHg 48%
    11:00 +32°C° 0 mm 2 mps 713 mmHg 42%
    12:00 +32°C° 0 mm 1 mps 713 mmHg 40%
    13:00 +33°C° 0 mm 1 mps 712 mmHg 39%
    14:00 +31°C° 0 mm 0 mps 711 mmHg 37%
    15:00 +30°C° 0 mm 0 mps 711 mmHg 40%
    16:00 +32°C° 0 mm 1 mps 711 mmHg 44%
    17:00 +31°C° 0 mm 1 mps 711 mmHg 47%
    18:00 +30°C° 0 mm 1 mps 712 mmHg 48%
    19:00 +29°C° 0 mm 1 mps 712 mmHg 49%
    20:00 +28°C° 0 mm 1 mps 712 mmHg 51%
    21:00 +27°C° 0 mm 1 mps 712 mmHg 53%
    22:00 +27°C° 0 mm 1 mps 712 mmHg 54%
    23:00 +26°C° 0 mm 2 mps 712 mmHg 56%

    25 November, Saturday

    Time Temperature Precipitation Wind Pressure Humidity
    00:00 +26°C° 0 mm 1 mps 712 mmHg 57%
    01:00 +25°C° 0 mm 1 mps 711 mmHg 58%
    02:00 +25°C° 0 mm 1 mps 711 mmHg 59%
    03:00 +24°C° 0 mm 1 mps 711 mmHg 59%
    04:00 +24°C° 0 mm 1 mps 711 mmHg 59%
    05:00 +24°C° 0 mm 1 mps 711 mmHg 59%
    06:00 +25°C° 0 mm 2 mps 712 mmHg 57%
    07:00 +26°C° 0 mm 2 mps 713 mmHg 54%
    08:00 +27°C° 0 mm 2 mps 714 mmHg 52%
    09:00 +28°C° 0 mm 2 mps 714 mmHg 48%
    10:00 +30°C° 0 mm 2 mps 714 mmHg 43%
    11:00 +32°C° 0 mm 2 mps 714 mmHg 38%
    12:00 +32°C° 0 mm 2 mps 713 mmHg 36%
    13:00 +34°C° 0 mm 2 mps 712 mmHg 34%
    14:00 +33°C° 0 mm 1 mps 711 mmHg 33%
    15:00 +33°C° 0 mm 1 mps 711 mmHg 35%
    16:00 +32°C° 0 mm 1 mps 711 mmHg 38%
    17:00 +31°C° 0 mm 1 mps 711 mmHg 40%
    18:00 +29°C° 0 mm 1 mps 712 mmHg 42%
    19:00 +28°C° 0 mm 1 mps 712 mmHg 44%
    20:00 +27°C° 0 mm 1 mps 713 mmHg 46%
    21:00 +26°C° 0 mm 1 mps 713 mmHg 47%
    22:00 +26°C° 0 mm 2 mps 713 mmHg 48%
    23:00 +25°C° 0 mm 2 mps 712 mmHg 49%
    Show more